ANDOYA current weather conditions

sailwx.info

Wind from 210 at 3 knots

Air temperature 2.0° C
Visibility: greater than 5.4 NM
Dewpoint -0.0° C

Last reported at 2015-Mar-31 08:20 UTC.
Time now 2015-Mar-31 09:44 UTC

Location: N 69°18' E 016°09'.
View on Google Maps.

See reports from other nearby stations

  
Tides and Currents Weather Stations Pressure Air Temp Water Temp Dewpoint Dewpoint Depression Visibility Wind Speed Wind Dir Waves Ship Positions
date/time (UTC)wind fromknots sea level pressurealtimeterstation pressurevisibilityair tempwater tempwave heightnotes
2015-Mar-31 08:20 210 3 5.4 2.0
2015-Mar-31 07:50 220 4 5.4 2.0
2015-Mar-31 07:20 220 4 5.4 2.0
2015-Mar-31 06:50 220 3 5.4 1.0
2015-Mar-31 06:20 230 3 5.4 1.0
2015-Mar-31 05:50 220 3 5.4 1.0
2015-Mar-31 05:20 170 4 5.4 1.0
2015-Mar-31 04:50 150 4 5.4 1.0
2015-Mar-31 04:20 140 5 5.4 2.0
2015-Mar-31 03:50 130 6 5.4 2.0
2015-Mar-31 03:20 110 7 5.4 2.0
2015-Mar-31 02:50 110 7 5.4 2.0
2015-Mar-31 01:50 080 10 5.4 2.0
2015-Mar-31 00:50 070 12 5.4 3.0
2015-Mar-30 23:50 040 11 5.4 3.0 Light rain showers.
2015-Mar-30 22:50 040 9 5.4 2.0 Showers in the vicinity.
2015-Mar-30 21:50 030 6 5.4 2.0 Showers in the vicinity.
2015-Mar-30 20:50 350 5 5.4 2.0 Showers in the vicinity.
2015-Mar-30 19:50 320 7 5.4 2.0 Showers in the vicinity.
2015-Mar-30 18:50 330 4 5.4 2.0 Showers in the vicinity.
2015-Mar-30 17:50 290 5 5.4 2.0 Showers in the vicinity.
2015-Mar-30 17:20 280 8 5.4 2.0 Light rain showers.
2015-Mar-30 16:50 260 7 5.4 2.0 Showers in the vicinity.
2015-Mar-30 16:20 230 4 5.4 3.0 Light rain showers.
2015-Mar-30 15:50 240 7 5.4 2.0 Light rain showers.
2015-Mar-30 15:20 240 10 5.4 3.0 Light rain showers.
2015-Mar-30 14:50 230 10 5.4 3.0 Light rain showers.
2015-Mar-30 14:20 210 9 5.4 4.0
2015-Mar-30 13:50 180 8 5.4 4.0
2015-Mar-30 13:20 190 11 5.4 3.0
2015-Mar-30 12:50 180 11 5.4 4.0
2015-Mar-30 12:20 190 12 5.4 4.0
2015-Mar-30 11:50 190 13 5.4 4.0
2015-Mar-30 11:20 190 12 5.4 4.0
2015-Mar-30 10:50 180 12 5.4 4.0
2015-Mar-30 10:20 180 15 5.4 4.0
2015-Mar-30 09:50 180 15 5.4 3.0 Light rain showers.
2015-Mar-30 09:20 180 15 5.4 3.0 Showers in the vicinity.
2015-Mar-30 08:50 160 14 5.4 3.0 Showers in the vicinity.
2015-Mar-30 08:20 160 13 5.4 3.0 Showers in the vicinity.
2015-Mar-30 07:50 150 14 5.4 3.0 Light rain.
2015-Mar-30 07:20 150 16 5.4 2.0 Light rain.
2015-Mar-30 06:50 150 16 5.4 3.0 Light rain.
2015-Mar-30 06:20 150 16 5.4 3.0 Light rain.
2015-Mar-30 05:50 160 16 5.4 3.0
2015-Mar-30 05:20 160 16 5.4 3.0
2015-Mar-30 04:50 170 15 5.4 3.0
2015-Mar-30 04:20 170 17 5.4 3.0
2015-Mar-30 03:50 170 18 5.4 3.0
2015-Mar-30 03:20 170 20 5.4 3.0
2015-Mar-30 02:50 160 13 5.4 2.0 Light rain.
2015-Mar-30 01:50 170 17 5.4 2.0 Light rain.
2015-Mar-30 00:50 160 15 5.4 3.0
2015-Mar-29 23:50 150 17 5.4 4.0
2015-Mar-29 22:50 150 17 5.4 4.0
2015-Mar-29 21:50 140 17 5.4 4.0
2015-Mar-29 20:50 140 16 5.4 4.0
2015-Mar-29 19:50 140 14 5.4 4.0
2015-Mar-29 18:50 160 17 5.4 4.0
2015-Mar-29 17:50 150 14 5.4 4.0
2015-Mar-29 17:20 160 14 5.4 4.0
2015-Mar-29 16:50 160 13 5.4 4.0
2015-Mar-29 16:20 170 9 5.4 4.0
2015-Mar-29 15:50 170 20 5.4 4.0
2015-Mar-29 15:20 160 16 5.4 4.0
2015-Mar-29 14:50 150 14 5.4 4.0
2015-Mar-29 14:20 160 18 5.4 4.0
2015-Mar-29 13:50 150 13 5.4 4.0
2015-Mar-29 13:20 160 17 5.4 4.0 Showers in the vicinity.
2015-Mar-29 12:50 170 19 5.4 4.0 Showers in the vicinity.
2015-Mar-29 12:20 170 19 5.4 4.0 Showers in the vicinity.
2015-Mar-29 11:50 170 16 5.4 4.0 Showers in the vicinity.
2015-Mar-29 11:20 170 13 5.4 4.0 Showers in the vicinity.
2015-Mar-29 10:50 160 18 5.4 4.0 Showers in the vicinity.
2015-Mar-29 10:20 160 20 5.4 4.0 Showers in the vicinity.
2015-Mar-29 09:50 150 20 5.4 4.0 Showers in the vicinity.
2015-Mar-29 09:20 140 22 5.4 5.0 Showers in the vicinity.